EW3803 Weather Reports


time (UTC)temp
C
wind
direction
speed
KPH
gust
KPH
rain 1hr
cm
rain 24hr
cm
rain mn
cm
humidity
%
barometer
mb
20181211181533 13 345 3.2 8.0 0.00 0.00 0.00 94 1023.7
20181211180036 13 345 3.2 6.4 0.00 0.00 0.00 94 1023.8
20181211174620 13 340 3.2 6.4 0.00 0.00 0.00 94 1023.8
20181211171530 13 333 4.8 6.4 0.00 0.00 0.00 93 1023.2
20181211170041 14 331 3.2 8.0 0.00 0.00 0.00 92 1023.0
20181211164551 14 328 4.8 8.0 0.00 0.00 0.00 91 1023.0
20181211163029 15 338 4.8 9.7 0.00 0.00 0.00 90 1022.9
20181211161533 15 343 6.4 9.7 0.00 0.00 0.00 90 1022.6
20181211160025 15 351 6.4 12.9 0.00 0.00 0.00 91 1022.5
20181211154602 15 343 6.4 12.9 0.00 0.00 0.00 91 1022.6
20181211153028 15 306 4.8 14.5 0.00 0.00 0.00 91 1022.6
20181211151600 15 321 6.4 12.9 0.00 0.00 0.00 92 1022.4
20181211150045 15 321 6.4 14.5 0.00 0.00 0.00 93 1022.5
20181211144533 15 319 9.7 16.1 0.00 0.00 0.00 92 1022.5
20181211143030 15 316 6.4 14.5 0.00 0.00 0.00 92 1022.4
20181211141534 15 297 8.0 14.5 0.00 0.00 0.00 90 1022.4
20181211140020 16 277 4.8 11.3 0.00 0.00 0.00 89 1022.4
20181211134528 16 332 6.4 14.5 0.00 0.00 0.00 87 1022.6
20181211133110 16 301 3.2 9.7 0.00 0.00 0.00 86 1022.7
20181211131523 16 308 4.8 9.7 0.00 0.00 0.00 87 1022.8
20181211130022 16 311 6.4 12.9 0.00 0.00 0.00 87 1022.6
20181211124523 16 324 3.2 12.9 0.00 0.00 0.00 88 1022.8
20181211123038 16 296 8.0 17.7 0.00 0.00 0.00 87 1023.0
20181211121511 16 281 9.7 16.1 0.00 0.00 0.00 86 1023.0
20181211120040 16 291 4.8 12.9 0.00 0.00 0.00 85 1023.0
20181211114508 16 286 4.8 11.3 0.00 0.00 0.00 86 1023.2
20181211113013 16 285 3.2 6.4 0.00 0.00 0.00 88 1023.4
20181211111519 16 190 1.6 4.8 0.00 0.00 0.00 89 1023.5
20181211110003 15 190 0.0 3.2 0.00 0.00 0.00 89 1023.6
20181211104804 15 190 1.6 4.8 0.00 0.00 0.00 89 1023.9
20181211103227 15 194 3.2 9.7 0.00 0.00 0.00 88 1023.9
20181211101637 15 195 4.8 9.7 0.00 0.00 0.00 88 1023.9
20181211100213 15 187 4.8 9.7 0.00 0.00 0.00 87 1023.8
20181211094653 15 188 4.8 8.0 0.00 0.00 0.00 87 1023.4
20181211093119 15 161 1.6 4.8 0.00 0.00 0.00 87 1023.2
20181211091559 14 157 1.6 9.7 0.00 0.00 0.00 87 1023.0
20181211090151 14 155 4.8 9.7 0.00 0.00 0.00 88 1022.6
20181211084625 13 155 4.8 9.7 0.00 0.00 0.00 89 1022.5
20181211083115 13 148 4.8 11.3 0.00 0.00 0.00 89 1022.4
20181211081657 13 146 4.8 8.0 0.00 0.00 0.00 89 1022.4
20181211080047 13 137 4.8 11.3 0.00 0.00 0.00 89 1022.2
20181211074600 13 132 4.8 8.0 0.00 0.00 0.00 89 1022.1
20181211073100 13 150 4.8 8.0 0.00 0.00 0.00 89 1022.0
20181211071613 13 146 3.2 11.3 0.00 0.00 0.00 89 1021.7
20181211070051 13 143 4.8 8.0 0.00 0.00 0.00 89 1021.6
20181211064659 13 149 3.2 8.0 0.00 0.00 0.00 89 1021.6
20181211063106 13 155 6.4 9.7 0.00 0.00 0.00 90 1021.3
20181211061550 13 154 6.4 11.3 0.00 0.00 0.00 90 1021.3
20181211060044 13 132 6.4 11.3 0.00 0.00 0.00 91 1021.3
20181211054600 13 132 4.8 12.9 0.00 0.00 0.00 91 1021.3
20181211053106 13 139 3.2 11.3 0.00 0.00 0.00 91 1021.3
20181211051549 13 155 6.4 11.3 0.00 0.00 0.00 91 1021.3
20181211050049 13 146 6.4 11.3 0.00 0.00 0.00 91 1021.3
20181211044533 12 134 6.4 14.5 0.00 0.00 0.00 91 1021.2
20181211043055 12 130 6.4 11.3 0.00 0.00 0.00 91 1021.2
20181211041529 12 147 9.7 16.1 0.00 0.00 0.00 91 1021.4
20181211040059 12 126 11.3 19.3 0.00 0.00 0.00 91 1021.4
20181211034548 12 134 12.9 19.3 0.00 0.00 0.00 90 1021.6
20181211033053 12 147 8.0 14.5 0.00 0.00 0.00 89 1021.7
20181211031516 12 136 4.8 11.3 0.00 0.00 0.00 89 1021.7
20181211030015 12 125 8.0 12.9 0.00 0.00 0.00 89 1021.6
20181211024526 12 134 4.8 12.9 0.00 0.00 0.00 88 1021.8
20181211023017 12 138 9.7 14.5 0.00 0.00 0.00 87 1021.7
20181211021508 12 148 6.4 11.3 0.00 0.00 0.00 87 1021.9
20181211020015 12 160 4.8 8.0 0.00 0.00 0.00 89 1022.1
20181211014518 12 163 3.2 8.0 0.00 0.00 0.00 89 1022.1
20181211013002 12 165 3.2 8.0 0.00 0.00 0.00 89 1022.2
20181211011620 12 169 1.6 4.8 0.00 0.00 0.00 89 1022.2
20181211010203 12 170 4.8 11.3 0.00 0.00 0.00 88 1022.4
20181211004714 12 159 4.8 9.7 0.00 0.00 0.00 87 1022.5
20181211003118 13 156 6.4 11.3 0.00 0.00 0.00 87 1022.5
20181211001642 13 147 4.8 11.3 0.00 0.00 0.00 87 1022.6
20181211000110 13 132 4.8 6.4 0.00 0.00 0.00 87 1022.8
20181210234707 13 140 4.8 6.4 0.00 0.00 0.00 86 1023.0
20181210233109 13 151 3.2 4.8 0.00 0.00 0.00 85 1023.1
20181210231727 13 151 1.6 3.2 0.00 0.00 0.00 85 1023.0
20181210230140 13 149 0.0 3.2 0.00 0.00 0.00 84 1023.1
20181210224641 13 149 1.6 8.0 0.00 0.00 0.00 84 1023.0
20181210223113 13 169 1.6 6.4 0.00 0.00 0.00 85 1023.0
20181210221629 13 169 3.2 6.4 0.00 0.00 0.00 84 1023.1
20181210220106 13 180 3.2 4.8 0.00 0.00 0.00 84 1023.2
20181210214618 14 190 1.6 3.2 0.00 0.00 0.00 83 1023.3
20181210213122 14 191 1.6 4.8 0.00 0.00 0.00 82 1023.2
20181210211617 15 199 1.6 4.8 0.00 0.00 0.00 83 1023.1
20181210210122 15 199 1.6 4.8 0.00 0.00 0.00 84 1023.1
20181210204609 15 199 1.6 6.4 0.00 0.00 0.00 85 1023.2
20181210203103 15 175 1.6 6.4 0.00 0.00 0.00 86 1023.1
20181210201612 15 171 3.2 8.0 0.00 0.00 0.00 85 1023.1
20181210200106 15 190 6.4 8.0 0.00 0.00 0.00 81 1023.0
20181210194638 16 171 3.2 6.4 0.00 0.00 0.00 78 1023.1
20181210193116 16 174 3.2 9.7 0.00 0.00 0.00 75 1023.1
20181210191546 16 149 3.2 8.0 0.00 0.00 0.00 69 1023.2
20181210190056 17 122 3.2 6.4 0.00 0.00 0.00 66 1023.2
20181210184620 17 122 1.6 3.2 0.00 0.00 0.00 65 1023.1
20181210183123 17 122 1.6 4.8 0.00 0.00 0.00 65 1023.0